When you browse on this site, cookies collect data to enhance your experience and personalize the content and advertising you see.
Visit our Privacy Policy to learn more. By continuing to use the site, you agree to this use of cookies and data.
  • In United Kingdom
  • List of Countries
  • For 7 days
  • Water Temperature
  • Weather Map
  • Weather Widgets
  • user-avatar
    Login

    Hourly Weather Wakefield

    Today, 17 November, Sunday

    Time Temperature Precipitation Wind Pressure Humidity
    00:00 +8°C° 0.1 mm 1 mps 749 mmHg 91%
    01:00 +8°C° 0 mm 1 mps 749 mmHg 90%
    02:00 +8°C° 0 mm 1 mps 749 mmHg 90%
    03:00 +8°C° 0 mm 1 mps 749 mmHg 90%
    04:00 +8°C° 0.1 mm 1 mps 749 mmHg 91%
    05:00 +7°C° 0.1 mm 1 mps 750 mmHg 91%
    06:00 +7°C° 0.1 mm 1 mps 750 mmHg 92%
    07:00 +8°C° 0.1 mm 1 mps 750 mmHg 92%
    08:00 +8°C° 0.1 mm 1 mps 751 mmHg 92%
    09:00 +7°C° 0.1 mm 2 mps 751 mmHg 93%
    10:00 +7°C° 0.3 mm 2 mps 752 mmHg 92%
    11:00 +7°C° 0.3 mm 2 mps 752 mmHg 91%
    12:00 +8°C° 0.3 mm 2 mps 753 mmHg 90%
    13:00 +8°C° 0.6 mm 3 mps 753 mmHg 90%
    14:00 +7°C° 0.6 mm 4 mps 753 mmHg 90%
    15:00 +7°C° 0.6 mm 4 mps 753 mmHg 90%
    16:00 +7°C° 0.3 mm 5 mps 754 mmHg 87%
    17:00 +6°C° 0.3 mm 5 mps 754 mmHg 85%
    18:00 +6°C° 0.3 mm 5 mps 755 mmHg 83%
    19:00 +6°C° 0.1 mm 5 mps 755 mmHg 84%
    20:00 +5°C° 0.1 mm 5 mps 755 mmHg 85%
    21:00 +5°C° 0.1 mm 4 mps 756 mmHg 85%
    22:00 +5°C° 0 mm 4 mps 756 mmHg 86%
    23:00 +5°C° 0 mm 4 mps 756 mmHg 87%

    Tomorrow, 18 November, Monday

    Time Temperature Precipitation Wind Pressure Humidity
    00:00 +4°C° 0 mm 4 mps 756 mmHg 88%
    01:00 +4°C° 0 mm 4 mps 756 mmHg 88%
    02:00 +4°C° 0 mm 4 mps 756 mmHg 87%
    03:00 +4°C° 0 mm 4 mps 756 mmHg 87%
    04:00 +4°C° 0 mm 4 mps 756 mmHg 87%
    05:00 +4°C° 0 mm 3 mps 756 mmHg 86%
    06:00 +3°C° 0 mm 3 mps 756 mmHg 86%
    07:00 +3°C° 0 mm 3 mps 757 mmHg 84%
    08:00 +4°C° 0 mm 4 mps 757 mmHg 83%
    09:00 +4°C° 0 mm 4 mps 757 mmHg 81%
    10:00 +5°C° 0 mm 4 mps 757 mmHg 77%
    11:00 +5°C° 0 mm 4 mps 756 mmHg 72%
    12:00 +6°C° 0 mm 4 mps 756 mmHg 68%
    13:00 +6°C° 0 mm 4 mps 756 mmHg 69%
    14:00 +6°C° 0 mm 4 mps 756 mmHg 70%
    15:00 +5°C° 0 mm 4 mps 755 mmHg 71%
    16:00 +5°C° 0 mm 4 mps 755 mmHg 74%
    17:00 +4°C° 0 mm 3 mps 755 mmHg 76%
    18:00 +3°C° 0 mm 3 mps 755 mmHg 79%
    19:00 +3°C° 0 mm 3 mps 754 mmHg 79%
    20:00 +2°C° 0 mm 3 mps 754 mmHg 80%
    21:00 +2°C° 0 mm 3 mps 754 mmHg 80%
    22:00 +2°C° 0 mm 3 mps 754 mmHg 81%
    23:00 +2°C° 0 mm 3 mps 754 mmHg 83%

    Day after tomorrow, 19 November, Tuesday

    Time Temperature Precipitation Wind Pressure Humidity
    00:00 +2°C° 0 mm 3 mps 753 mmHg 84%
    01:00 +1°C° 0 mm 3 mps 753 mmHg 84%
    02:00 +1°C° 0 mm 3 mps 752 mmHg 85%
    03:00 +2°C° 0 mm 2 mps 752 mmHg 85%
    04:00 +2°C° 0 mm 2 mps 752 mmHg 85%
    05:00 +1°C° 0 mm 3 mps 751 mmHg 84%
    06:00 +2°C° 0 mm 3 mps 751 mmHg 83%
    07:00 +2°C° 0 mm 3 mps 751 mmHg 83%
    08:00 +2°C° 0 mm 3 mps 751 mmHg 83%
    09:00 +3°C° 0 mm 3 mps 750 mmHg 83%
    10:00 +3°C° 0.1 mm 3 mps 750 mmHg 81%
    11:00 +4°C° 0.1 mm 3 mps 750 mmHg 78%
    12:00 +5°C° 0.1 mm 3 mps 750 mmHg 76%
    13:00 +5°C° 0.1 mm 3 mps 749 mmHg 75%
    14:00 +5°C° 0.1 mm 3 mps 749 mmHg 74%
    15:00 +5°C° 0.1 mm 3 mps 748 mmHg 73%
    16:00 +4°C° 0 mm 3 mps 748 mmHg 74%
    17:00 +4°C° 0 mm 3 mps 748 mmHg 76%
    18:00 +5°C° 0 mm 2 mps 748 mmHg 77%
    19:00 +5°C° 0 mm 2 mps 748 mmHg 78%
    20:00 +5°C° 0 mm 2 mps 748 mmHg 79%
    21:00 +5°C° 0 mm 2 mps 748 mmHg 80%
    22:00 +5°C° 0 mm 2 mps 748 mmHg 82%
    23:00 +4°C° 0 mm 2 mps 748 mmHg 83%

    20 November, Wednesday

    Time Temperature Precipitation Wind Pressure Humidity
    00:00 +4°C° 0 mm 2 mps 748 mmHg 84%
    01:00 +4°C° 0.1 mm 2 mps 747 mmHg 85%
    02:00 +4°C° 0.1 mm 2 mps 747 mmHg 85%
    03:00 +4°C° 0.1 mm 2 mps 747 mmHg 85%
    04:00 +4°C° 0.1 mm 2 mps 747 mmHg 85%
    05:00 +4°C° 0.1 mm 2 mps 747 mmHg 85%
    06:00 +4°C° 0.1 mm 2 mps 747 mmHg 85%
    07:00 +4°C° 0.1 mm 2 mps 747 mmHg 86%
    08:00 +4°C° 0.1 mm 2 mps 747 mmHg 88%
    09:00 +5°C° 0.1 mm 1 mps 747 mmHg 89%
    10:00 +5°C° 0 mm 2 mps 747 mmHg 88%
    11:00 +5°C° 0 mm 2 mps 747 mmHg 87%
    12:00 +5°C° 0 mm 2 mps 747 mmHg 86%
    13:00 +5°C° 0 mm 2 mps 747 mmHg 86%
    14:00 +6°C° 0 mm 2 mps 747 mmHg 86%
    15:00 +6°C° 0 mm 2 mps 746 mmHg 86%
    16:00 +6°C° 0.1 mm 2 mps 746 mmHg 87%
    17:00 +5°C° 0.1 mm 2 mps 747 mmHg 87%
    18:00 +5°C° 0.1 mm 2 mps 747 mmHg 88%
    19:00 +5°C° 0.1 mm 2 mps 747 mmHg 88%
    20:00 +5°C° 0.1 mm 2 mps 747 mmHg 89%
    21:00 +5°C° 0.1 mm 2 mps 747 mmHg 89%
    22:00 +5°C° 0 mm 2 mps 747 mmHg 91%
    23:00 +5°C° 0 mm 2 mps 747 mmHg 93%

    21 November, Thursday

    Time Temperature Precipitation Wind Pressure Humidity
    00:00 +5°C° 0 mm 2 mps 747 mmHg 94%
    01:00 +5°C° 0 mm 2 mps 746 mmHg 95%
    02:00 +5°C° 0 mm 2 mps 746 mmHg 96%
    03:00 +5°C° 0 mm 2 mps 746 mmHg 96%
    04:00 +6°C° 0.1 mm 2 mps 745 mmHg 96%
    05:00 +6°C° 0.1 mm 2 mps 745 mmHg 96%
    06:00 +6°C° 0.1 mm 2 mps 745 mmHg 96%
    07:00 +6°C° 0.6 mm 2 mps 745 mmHg 96%
    08:00 +6°C° 0.6 mm 2 mps 745 mmHg 97%
    09:00 +5°C° 0.6 mm 3 mps 745 mmHg 97%
    10:00 +6°C° 0.4 mm 2 mps 745 mmHg 97%
    11:00 +7°C° 0.4 mm 2 mps 744 mmHg 97%
    12:00 +7°C° 0.4 mm 2 mps 744 mmHg 96%
    13:00 +7°C° 0.4 mm 2 mps 744 mmHg 97%
    14:00 +7°C° 0.4 mm 2 mps 744 mmHg 97%
    15:00 +7°C° 0.4 mm 2 mps 744 mmHg 98%
    16:00 +7°C° 0.4 mm 2 mps 744 mmHg 98%
    17:00 +7°C° 0.4 mm 2 mps 744 mmHg 98%
    18:00 +7°C° 0.4 mm 2 mps 744 mmHg 98%
    19:00 +7°C° 0.2 mm 3 mps 744 mmHg 96%
    20:00 +7°C° 0.2 mm 3 mps 744 mmHg 94%
    21:00 +7°C° 0.2 mm 3 mps 744 mmHg 92%
    22:00 +7°C° 0 mm 3 mps 744 mmHg 91%
    23:00 +7°C° 0 mm 3 mps 744 mmHg 90%

    22 November, Friday

    Time Temperature Precipitation Wind Pressure Humidity
    00:00 +7°C° 0 mm 2 mps 743 mmHg 89%
    01:00 +7°C° 0 mm 2 mps 743 mmHg 90%
    02:00 +6°C° 0 mm 2 mps 743 mmHg 92%
    03:00 +6°C° 0 mm 2 mps 743 mmHg 93%
    04:00 +6°C° 0.1 mm 2 mps 743 mmHg 94%
    05:00 +8°C° 0.1 mm 1 mps 743 mmHg 95%
    06:00 +8°C° 0.1 mm 1 mps 744 mmHg 96%
    07:00 +8°C° 0.1 mm 1 mps 744 mmHg 96%
    08:00 +8°C° 0.1 mm 1 mps 744 mmHg 96%
    09:00 +8°C° 0.1 mm 1 mps 745 mmHg 95%
    10:00 +8°C° 0 mm 1 mps 745 mmHg 93%
    11:00 +8°C° 0 mm 1 mps 745 mmHg 90%
    12:00 +8°C° 0 mm 0 mps 745 mmHg 88%
    13:00 +9°C° 0 mm 1 mps 745 mmHg 89%
    14:00 +8°C° 0 mm 2 mps 745 mmHg 90%
    15:00 +8°C° 0 mm 2 mps 745 mmHg 92%
    16:00 +7°C° 0 mm 3 mps 745 mmHg 92%
    17:00 +7°C° 0 mm 3 mps 745 mmHg 93%
    18:00 +6°C° 0 mm 4 mps 745 mmHg 94%
    19:00 +6°C° 1 mm 4 mps 745 mmHg 94%
    20:00 +7°C° 1 mm 5 mps 745 mmHg 95%
    21:00 +7°C° 1 mm 5 mps 745 mmHg 95%
    22:00 +7°C° 1.9 mm 5 mps 745 mmHg 96%
    23:00 +7°C° 1.9 mm 5 mps 745 mmHg 96%
    Show more